Regional Weather Roundup
Issued by NWS Little Rock, AR

Home | Current Version | Previous Version | Text Only | Print | Product List | Glossary On
Versions: 1 2 3 4 5 6 7 8 9 10 11 12 13 14 15 16 17 18 19 20 21 22 23 24 25 26 27 28 29 30 31 32 33 34 35 36 37 38 39 40 41 42 43 44 45 46 47 48 49
000
ASUS44 KLZK 020305
RWRLZK

WEATHER ROUNDUP FOR ARKANSAS
NATIONAL WEATHER SERVICE LITTLE ROCK AR
900 PM CST SUN MAR 01 2015

NOTE: "FAIR" INDICATES FEW OR NO CLOUDS BELOW 12,000 FEET WITH NO
SIGNIFICANT WEATHER AND/OR OBSTRUCTIONS TO VISIBILITY.

ARZ001-003-010-029-020400-
NORTHWEST ARKANSAS

CITY           SKY/WX    TMP DP  RH WIND       PRES   REMARKS
FAYETTEVILLE   CLOUDY    31  31 100 N5        30.39R FOG     WCI  26
FORT SMITH     CLOUDY    37  32  82 NW3       30.41R
HARRISON       CLOUDY    32  30  92 NW5       30.40R FOG     WCI  27
BENTONVILLE    CLOUDY    30  25  80 N10       30.41R WCI  21
ROGERS         CLOUDY    29  27  92 N8        30.40R WCI  21
SILOAM SPGS    CLOUDY    30  25  80 CALM      30.41S
HIGHFILL       CLOUDY    31  27  85 N13       30.39R WCI  21
$$

ARZ004-005-016-020400-
NORTH CENTRAL ARKANSAS

CITY           SKY/WX    TMP DP  RH WIND       PRES   REMARKS
BATESVILLE     CLOUDY    37  34  87 NW3       30.40R
FLIPPIN        CLOUDY    34  28  80 N6        30.40R WCI  29
MTN HOME       CLOUDY    32  32 100 NW3       30.40R FOG
$$

ARZ040-041-020400-
WEST CENTRAL ARKANSAS

CITY           SKY/WX    TMP DP  RH WIND       PRES   REMARKS
MENA           CLOUDY    37  36  93 NE6       30.37R
MOUNT IDA      CLOUDY    38  36  92 CALM      30.35R
$$

ARZ009-017-025-026-028-020400-
NORTHEAST ARKANSAS

CITY           SKY/WX    TMP DP  RH WIND       PRES   REMARKS
CORNING        CLOUDY    36  36 100 N3        30.42R
JONESBORO      CLOUDY    36  35  96 N5        30.41R
NEWPORT        LGT RAIN  37  37 100 N3        30.42S FOG
WALNUT RIDGE   MOCLDY    36  32  87 N3        30.41R
BLYTHEVILLE    MIX PCPN  34  34 100 N6        30.41R FOG     WCI  29
$$

ARZ022-023-033-042-044-020400-
CENTRAL ARKANSAS

CITY           SKY/WX    TMP DP  RH WIND       PRES   REMARKS
LITTLE ROCK    CLOUDY    41  37  86 N10       30.39R
N LITTLE ROCK  CLOUDY    38  38 100 N8G16     30.39R
JACKSONVILLE   CLOUDY    39  38  95 N5        30.39R
SEARCY         CLOUDY    38  37  97 N3        30.41R
HOT SPRINGS    CLOUDY    40  38  93 CALM      30.38R
RUSSELLVILLE   CLOUDY    39  37  92 NW3       30.39R FOG
CLINTON        CLOUDY    37  32  81 CALM      30.42R
$$

ARZ036-020400-
EAST ARKANSAS

CITY           SKY/WX    TMP DP  RH WIND       PRES   REMARKS
WEST MEMPHIS   CLOUDY    36  36 100 N7        30.38R FOG
$$

ARZ050-053-066-070-073-020400-
SOUTHWEST ARKANSAS

CITY           SKY/WX    TMP DP  RH WIND       PRES   REMARKS
ARKADELPHIA    CLOUDY    41  41 100 N9        30.38R
CAMDEN         CLOUDY    41  39  93 MISG      30.36R
TEXARKANA      CLOUDY    42  42 100 N5        30.35R FOG
EL DORADO      CLOUDY    41  40  96 N6        30.34R
DE QUEEN       CLOUDY    42  39  89 NE5       30.35R
$$

ARZ056-057-069-020400-
SOUTHEAST ARKANSAS

CITY           SKY/WX    TMP DP  RH WIND       PRES   REMARKS
PINE BLUFF     CLOUDY    40  38  93 N9        30.38R FOG
STUTTGART      CLOUDY    39  36  87 N10       30.39R
MONTICELLO     CLOUDY    41  39  93 VRB5      30.35R FOG

$$




USA.gov is the U.S. government's official web portal to all federal, state and local government web resources and services.